Zurück zum Katalog

COSMOS 1997

AktivMilitärPO
NORAD 19788·PAYLOAD·🇷🇺 Russia

Gestartet Feb 10, 1989 von Plesetsk Cosmodrome

Loading…

Nächste Überflüge (nächste 24 Stunden)

TLE

AktuellSource: Space-Track

Epoche: Sep 14, 2026, 01:31 UTC

1 19788U 89009D   26257.06367477  .00000024  00000-0  72359-4 0  9997
2 19788  82.6191 304.2027 0010410 136.9359 245.9904 12.63691105733732

Verfolge COSMOS 1997 in Echtzeit mit AllMySat

Download on the App Store